◎P/2004 CB = 2008 X2の連結軌道と予報位置

 米国のハグによって,12月4日と5日に19等級で検出されました.検出時の彗星
の位置は,予報軌道(NK 1096)から赤経方向に-341",赤緯方向に+79"のずれがあ
り,近日点通過時刻への補正値にして,儺= +0.156日でした.
 秦野の浅見敦夫氏から12月6日,上尾の門田健一氏から8日の観測が報告されて
います.彗星のCCD全光度は,それぞれ,19.2等と19.3等でした.

 209P/2004 CB = 2008 X2 (LINEAR)    [Temporary numbered]
Epoch 2009 Mar. 30.0 TT = JDT 2454920.5  
T 2009 Apr. 15.97437 TT                                 Nakano
q   0.9137062            (2000.0)            P               Q
n   0.19574072     Peri.  149.72948     -0.78160962     +0.54650986
a   2.9377529      Node    66.44967     -0.61759389     -0.61036810
e   0.6889778      Incl.   19.14792     -0.08754534     -0.57339145
P   5.04
From 344 observations 2004-2008, mean residual 0".42.
Residuals in seconds of arc 
2004/                     040214 H06  0.1+  0.4+    040226 J92  0.3+  0.2+  
040203 704  0.8+  0.0     040214 H06  0.4-  0.1-    040226 J92  0.0   0.4+  
040203 704  0.4+  0.1+    040214 750  0.2+  0.1-    040226 J92  0.3+  0.2+  
040203 704  0.2+  0.1+    040214 750  0.7-  0.0     040226 J92  0.4+  0.3+  
040203 704  0.5+  0.0     040214 750  0.4-  0.2-    040226 J92  0.6+  0.0   
040203 704  0.6+  0.0     040214 750  0.5-  0.1-    040227 H41  0.3-  0.4+  
040204 143  0.1-  0.2+    040215 130  0.1+  0.6-    040227 H41  0.1-  0.1-  
040204 143  0.3-  0.6-    040215 130  0.0   0.4-    040227 H41  0.5-  0.8+  
040204 143  0.3-  0.2-    040215 130  0.2-  0.3-    040227 H41  0.1-  0.9-  
040205 673  0.1-  0.5+    040215 130  0.1-  0.2+    040227 H41  0.0   0.6-  
040205 673  0.1-  0.5+    040216 H67  0.2-  0.0     040227 H41  0.9+  0.1-  
040205 673  0.3-  0.2+    040216 H67  0.1-  0.0     040227 379  1.2-  0.6-  
040205 673  0.4+  0.4+    040216 H67  0.9-  0.5+    040227 379  0.8+  0.2-  
040206 926  0.7-  0.0     040216 A17  0.2-  0.0     040227 379  0.6-  0.3+  
040206 926  0.2-  0.1-    040216 A17  0.4-  0.2-    040228 670  0.4+  0.0   
040206 926  0.1+  0.1+    040219 H72  0.2-  0.9+    040228 670  0.1+  0.1+  
040207 J95  0.5-  0.3-    040219 H72  0.3+  0.3+    040228 670  0.1-  0.2-  
040207 J95  0.2+  0.1+    040219 H72  0.7+  1.1+    040306 118  0.1-  0.3-  
040207 J95  0.0   0.2+    040219 H72  0.1+  0.2+    040306 118  0.3-  0.5-  
040207 926  0.3-  0.6-    040219 H72  1.1+  0.2+    040306 118  0.1-  0.5-  
040207 926  0.0   0.3-    040219 H72  0.4+  0.8+    040306 118  0.0   0.4-  
040208 J95  0.1+  0.0     040219 H72  0.1-  0.3+    040306 118  0.1-  0.4-  
040208 J95  0.3-  0.0     040219 H72  0.3+  0.7+    040307 941  0.9-  0.1+  
040208 J95  0.1+  0.0     040223 J92 (3.6-  1.7+)   040307 941  0.7-  0.2-  
040208 932  0.2+  0.1+    040223 J92  0.6+  0.1-    040307 941  0.6-  0.5-  
040208 932  0.4+  0.2-    040223 J92  0.1-  0.1-    040307 941  0.5-  0.1-  
040208 932  0.3+  0.1-    040223 J92  0.4+  0.1+    040307 H41  1.0-  0.1-  
040208 932  0.1+  0.3+    040223 J92  0.2+  0.3+    040307 H41  0.2-  1.4+  
040208 932  0.2+  0.2+    040223 J92  0.2+  0.0     040307 H41  0.7-  0.5+  
040208 932  0.4+  0.2+    040223 J92  0.1+  0.1+    040307 H41  1.1-  0.1+  
040208 926  0.6-  0.0     040223 J92  0.3+  0.1-    040307 H41  1.3-  0.6-  
040208 926  0.1+  0.1+    040223 J92  0.1+  0.0     040309 H41 (1.8-  2.3+) 
040208 926  0.5+  0.1-    040223 J92  0.2+  0.1-    040309 H41  0.1-  0.5-  
040209 J95  0.2-  0.1+    040223 J92  0.1+  0.0     040309 H41  0.7-  1.5-  
040209 J95  0.0   0.2+    040223 J92  0.2+  0.0     040309 H41 (2.4-  0.4+) 
040209 J95  0.1-  0.2+    040223 J92  0.0   0.0     040309 H41  0.7-  0.0   
040209 J92  0.1-  0.1+    040223 J92  0.2+  0.2+    040313 084  1.8-  1.2+  
040209 J92  0.5+  0.2-    040223 J92  0.1+  0.0     040314 084  1.6-  0.9+  
040209 J92  0.6+  0.0     040223 J92  0.2-  0.1+    040330 084 (9.0-  2.2+) 
040209 J92  0.4+  0.1-    040223 J92  0.3-  0.1+    040330 413  0.0   0.1-  
040209 J92  0.6-  0.2+    040223 J92  0.3+  0.1-    040330 413  0.1+  0.0   
040209 J92  0.1-  0.1+    040223 J92  0.1-  0.1-    040330 413  0.1+  0.1-  
040209 J92  0.0   0.1-    040223 J92  0.3+  0.1+    040330 413  0.1+  0.1+  
040209 J92  0.2+  0.3-    040223 J92  0.3+  0.1-    040330 413  0.0   0.0   
040209 J92  0.1-  0.0     040223 J92  0.0   0.1+    040330 413  0.0   0.3-  
040209 J92  0.0   0.2+    040223 J92  0.1+  0.0     040331 246  0.7-  0.1-  
040209 J92  0.7+  0.1-    040223 J92  0.2+  0.0     040331 246  0.8-  0.3-  
040209 J92  0.5-  0.1+    040223 J92  0.0   0.1+    040331 246  1.3-  0.2-  
040209 J92  0.1-  0.0     040223 J92  0.1-  0.1-    040331 246  1.2-  0.1-  
040209 J92  0.0   0.0     040223 J92  0.0   0.0     040331 349  0.7-  1.0-  
040209 J92  0.2-  0.2+    040223 J92  0.3+  0.1-    040331 349  1.1-  0.6-  
040209 J92  0.2-  0.0     040223 J92  0.3+  0.2+    040331 349  0.5-  0.5-  
040209 J92  0.0   0.4+    040223 J92  0.1+  0.1-    040331 349  0.4-  0.6-  
040209 J92  0.9-  0.1+    040223 J92  0.0   0.1+    040331 379  0.1-  0.7-  
040209 J92  0.1-  0.2+    040223 J92  0.1+  0.2-    040331 379  0.5-  0.9-  
040209 J92  0.1+  0.2+    040223 J92  0.3+  0.1-    040401 413  0.3-  0.1+  
040209 J92  0.2-  0.3+    040223 J92  0.1-  0.0     040401 413  0.1-  0.2-  
040209 J92  1.4+  0.2+    040223 J92  0.1+  0.1+    040401 413  0.1+  0.1-  
040209 J92  0.0   0.1+    040223 J92  0.2+  0.2-    040402 349  0.2-  1.2-  
040209 J92  0.2-  0.0     040223 J92  0.2+  0.3-    040402 349  1.2-  0.1-  
040209 J92  0.9-  0.3+    040223 J92  0.2-  0.2-    040402 349  0.8-  0.4-  
040209 J92  0.1+  0.2-    040223 J92  0.1+  0.0     040402 349  0.9-  0.4+  
040209 J92  0.3+  0.1+    040223 J92  0.2-  0.1+    040404 H41  0.9-  0.0   
040209 J92  0.1+  0.2+    040223 J92  0.4+  0.1-    040404 H41  0.3-  0.3+  
040209 J92  0.0   0.4+    040223 J92  0.0   0.2-    040404 H41  0.4+  0.1-  
040209 J92  1.0+  0.0     040223 J92  0.1+  0.1-    040404 H41  0.4-  0.6-  
040209 J92  1.3+  0.1+    040223 J92  0.1+  0.2-    040404 H41  0.2-  0.8+  
040209 J92  0.5+  0.1+    040226 J92 (3.6-  1.8+)   040404 H41  0.9-  0.4-  
040209 J92  0.0   0.3+    040226 J92  0.3+  0.3+    040409 926 (3.4-  0.5+) 
040209 J92 (2.4-  0.7+)   040226 J92  0.3-  0.0     040409 926  1.0-  0.4+  
040209 J92  0.8-  0.1+    040226 J92  0.4+  0.0     040409 926 (2.4-  0.5-) 
040209 J92  0.3-  0.2+    040226 J92  0.4-  0.0     040413 413  0.0   0.2+  
040209 J92  0.0   0.1+    040226 J92  0.1+  0.1+    040413 413  0.0   0.2+  
040209 926  0.2-  0.2+    040226 J92  0.3+  0.2-    040413 413  0.1+  0.2+  
040209 926  0.2+  0.0     040226 J92  0.4+  0.0     040416 D70  0.2+  1.4+  
040209 926  0.5+  0.1-    040226 J92  0.3+  0.1+    040416 D70  1.1-  0.1+  
040210 204  0.1-  0.0     040226 J92  0.1+  0.2+    040417 349  0.8-  0.4-  
040210 204  0.2+  0.3-    040226 J92  0.1+  0.1+    040417 349  0.9-  0.8-  
040210 204  0.1+  0.3+    040226 J92  0.1+  0.1+    040417 349  0.8-  0.6-  
040210 649  0.4-  0.0     040226 J92  0.3+  0.2-    040423 360  0.3-  0.6-  
040210 649  0.2-  0.2-    040226 J92  0.2+  0.1+    040423 360  0.4-  0.3-  
040210 649  0.1-  0.0     040226 J92  0.4+  0.1+    040423 360  1.3-  0.1+  
040210 649  0.1-  0.1+    040226 J92  0.1+  0.0     040514 D82  0.4-  0.5-  
040210 704  0.3-  0.3+    040226 J92  0.3+  0.2-    040514 D82  0.8+  0.2+  
040210 704  0.1-  0.3+    040226 J92  0.3+  0.1-    040624 I05  0.4+  0.8+  
040210 704  0.2+  0.1+    040226 J92  0.1+  0.0     040624 I05  0.2+  0.5+  
040210 704  0.2-  0.1+    040226 J92  0.8+  0.1+    040719 E12  0.3-  0.6+  
040210 704  0.0   0.4+    040226 J92  0.5+  0.1+    040719 E12  0.4+  0.6+  
040210 926  0.7-  0.0     040226 J92  0.3+  0.1-    040719 E12  0.1+  0.7+  
040210 926  0.1+  0.1+    040226 J92  0.3+  0.1-    040719 E12  0.2+  0.6+  
040210 926  0.6+  0.1-    040226 J92  0.5+  0.0     040727 859 (2.2-  0.1+) 
040211 J95  0.5-  0.5-    040226 J92  0.3+  0.2+    040727 859  0.8+  1.1+  
040211 J95  0.1-  0.0     040226 J92  0.1+  0.0     040815 E12  0.5+  0.5-  
040211 J95  0.3-  0.2-    040226 J92  0.2+  0.0     040815 E12  0.1+  1.0+  
040211 H06  0.2-  0.3+    040226 J92  0.4+  0.2+    040815 E12  0.4+  0.8+  
040211 H06  0.4-  0.2+    040226 J92  0.3+  0.0     040815 E12  0.2+  0.7+  
040211 H06  0.1-  0.0     040226 J92  0.1+  0.0     040825 E12  0.4+  0.4+  
040211 H06  0.0   0.2-    040226 J92  0.2+  0.1+    040825 E12  1.0+  0.1-  
040211 H06  0.2-  0.4+    040226 J92  0.3+  0.0     040825 E12  0.5+  0.4+  
040211 H06  0.5-  0.3+    040226 J92  0.5+  0.1+    040825 E12  0.0   1.3+  
040211 H06  0.1+  0.0     040226 J92  0.3+  0.1-    2008/                   
040211 H06  0.2-  0.3+    040226 J92  0.3+  0.1-    081204 H36  0.0   0.3+  
040211 H06  0.2-  0.3+    040226 J92  0.3+  0.1+    081204 H36  0.2-  0.3-  
040211 H06  0.4+  0.4+    040226 J92  0.5+  0.2-    081204 H36  0.3-  0.2+  
040211 H06  0.0   0.1+    040226 J92  0.0   0.2+    081204 H36  0.3-  0.6-  
040211 H06  0.4-  0.3+    040226 J92  0.6+  0.3+    081204 H36  0.1+  0.4-  
040214 176  0.1-  0.2-    040226 J92  0.2+  0.1+    081205 H36  0.4+  0.3+  
040214 176  0.1-  0.2-    040226 J92  0.1+  0.1+    081205 H36  0.1+  0.1-  
040214 176  0.1-  0.2-    040226 J92  0.5+  0.1-    081205 H36  0.2-  0.1-  
040214 176  0.1-  0.2-    040226 J92  0.6+  0.0     081205 H36  0.2-  0.3-  
040214 176  0.1-  0.2-    040226 J92  0.3+  0.1+    081205 H36  0.3-  0.5-  
040214 H06  0.3-  0.2-    040226 J92  0.5+  0.1+    081206 355  0.5+  0.1-  
040214 H06  0.2-  0.4-    040226 J92  0.1+  0.1+    081206 355  0.5-  0.8-  
040214 H06  0.5-  0.5-    040226 J92  0.2+  0.0     081206 355  0.4-  0.6-  
040214 H06  0.2+  0.9-    040226 J92  0.0   0.2+    081208 349  0.3+  0.0   
040214 H06  0.5-  1.1-    040226 J92  0.4+  0.0     081208 349  0.0   0.4-  
040214 H06  0.5-  1.2+    040226 J92  0.4+  0.2+    081208 349  0.1+  0.1-  
040214 H06  0.4-  0.6+    040226 J92  0.3+  0.2+                            
040214 H06  0.4-  0.5+    040226 J92  0.0   0.2+                            
 
